星链-35699(STARLINK-35699)

导读

STARLINK-35699是美国SpaceX公司星链(Starlink)星座的成员卫星,于2025年11月21日发射入轨。星链项目旨在通过低轨卫星网络实现全球高速互联网覆盖,为偏远欠发达地区提供网络接入服务。该卫星采用量产化设计,搭载霍尔推进器和自主避撞系统,服役末期会主动离轨再入大气层烧毁,服务寿命约5-7年,属于星链星座持续扩展的一部分。

基本信息
目录编号:
66557
目录名称:
STARLINK-35699
国际标识:
2025-268A
轨道中心:
EARTH
卫星名称:
星链-35699
卫星全名:
星链-35699(STARLINK-35699)
卫星状态:
在轨 (已飞行294 天)
发射日期:
2025-11-21 UTC
国别 :
美国 (US)
星等 :
--
该卫星已列入 空间交会检测服务 Space Conjunction Data Service (SCDS) ,当前飞行风险评估等级: 高风险
轨道信息
数据来源 国际轨道数据
星历时间: 2026-09-10T09:43:02+0800
1天前
查看轨道信息
半长轴: 6861.105km
偏心率: 0.0001469
轨道倾角: 43.001°
近地点辐角 276.612°
升交点赤经 26.200°
平近点角 83.457°
近地点: 481.96km
远地点: 483.976km
周期: 94.265分钟
每日圈数: 15.276074
详细信息
固有亮度:
5
最大亮度:
2.5
卫星平台:
Starlink V1.0
覆盖范围:
全球
运营商:
太空探索技术公司
运营商所在国:
美国
制造商(研发单位):
太空探索技术公司
制造商所在国:
美国
使用方式:
暂无
卫星简介
Starlink 计划是 SpaceX 推出的全球卫星互联网项目,通过发射低轨道卫星,为全球尤其是偏远地区提供高速、低延迟的互联网服务。自 2019 年起,Starlink 已部署数千颗卫星,旨在缩小全球数字鸿沟,推动互联网普及。该项目还为军事、航空等行业提供通信支持,带来广泛经济效益。
2D轨道图
3D轨道图
轨道高度分析图
轨道倾角分析图
轨道综合分析图
查看轨道综合分析图
交会数据列表
事件ID 空间交会对象 最接近时刻(TCA) 交会距离 交会风险概率(CRP) 交会风险指数(CRI) 操作
CDM_260911-160305-813906-655721
2026-09-11T
16:03:35+0000
0.267 km
中距离
5.033227E-4 高风险 0.89
CDM_260911-175605-887006-655721
2026-09-11T
17:56:49+0000
0.353 km
远距离
2.950401E-4 高风险 0.84
CDM_260912-094105-987106-655722
2026-09-12T
09:41:06+0000
0.400 km
远距离
2.075134E-4 高风险 0.81
CDM_260912-164405-987106-655722
2026-09-12T
16:44:47+0000
0.843 km
远距离
2.700551E-5 中风险 0.64
CDM_260912-083205-813906-655721
2026-09-12T
08:32:11+0000
1.110 km
极远距离
1.425204E-5 中风险 0.58
CDM_260912-071705-887006-655721
2026-09-12T
07:17:07+0000
1.130 km
极远距离
1.142518E-5 中风险 0.56
CDM_260912-054205-887006-655721
2026-09-12T
05:42:58+0000
1.641 km
极远距离
3.327498E-6 低风险 0.45
CDM_260912-151205-536606-655721
2026-09-12T
15:12:35+0000
1.617 km
极远距离
2.629723E-6 低风险 0.43
CDM_260911-173705-813906-655721
2026-09-11T
17:37:44+0000
1.949 km
极远距离
2.374183E-6 低风险 0.43
CDM_260911-193005-887006-655721
2026-09-11T
19:30:58+0000
1.847 km
极远距离
2.373137E-6 低风险 0.43
与全量物体交会距离演化趋势
与全量物体交会风险概率演化趋势